Powrót do katalogu

COSMOS 2251 DEB

AktywnyVLEO
NORAD 35023·DEBRIS·🇷🇺 Russia

Wystrzelony Jun 16, 1993 z Plesetsk Cosmodrome

Loading…

Następne Przeloty (najbliższe 24 godziny)

TLE

ŚwieżeSource: Space-Track

Epoka: Sep 14, 2026, 07:32 UTC

1 35023U 93036AGL 26257.31398154  .00012343  00000-0  86373-3 0  9993
2 35023  74.0358  11.9441 0028607  20.8951  10.0121 15.04978662924132

Śledź COSMOS 2251 DEB w czasie rzeczywistym z AllMySat

Download on the App Store